Time,TemperatureF,DewpointF,PressureIn,WindDirection,WindDirectionDegrees,WindSpeedMPH,WindSpeedGustMPH,Humidity,HourlyPrecipIn,Conditions,Clouds,dailyrainin,SolarRadiationWatts/m^2,SoftwareType,DateUTC
2014-03-03 00:00:00,64.0,49.0,29.93,WSW,254,4.0,-999.0,57,0.00,,,-99.99,-1.400000,,2014-03-03 05:00:00,
2014-03-03 00:43:00,64.0,49.0,29.93,WSW,254,4.0,-999.0,57,0.00,,,-99.99,-1.400000,,2014-03-03 05:43:00,
2014-03-03 00:53:00,64.0,49.0,29.93,WSW,254,4.0,-999.0,57,0.00,,,-99.99,-1.400000,,2014-03-03 05:53:00,
2014-03-03 01:00:00,63.0,48.0,29.90,West,279,6.0,-999.0,57,0.00,,,-99.99,-1.600000,,2014-03-03 06:00:00,
2014-03-03 01:42:00,63.0,48.0,29.90,West,279,6.0,-999.0,57,0.00,,,-99.99,-1.600000,,2014-03-03 06:42:00,
2014-03-03 01:52:00,63.0,48.0,29.90,West,279,6.0,-999.0,57,0.00,,,-99.99,-1.600000,,2014-03-03 06:52:00,
2014-03-03 02:00:00,57.0,48.0,29.88,West,262,1.0,-999.0,69,0.00,,,-99.99,-2.400000,,2014-03-03 07:00:00,
2014-03-03 02:42:00,57.0,48.0,29.88,West,262,1.0,-999.0,69,0.00,,,-99.99,-2.400000,,2014-03-03 07:42:00,
2014-03-03 02:53:00,57.0,48.0,29.88,West,262,1.0,-999.0,69,0.00,,,-99.99,-2.400000,,2014-03-03 07:53:00,
2014-03-03 03:00:00,56.0,48.0,29.85,WNW,300,2.0,-999.0,74,0.00,,,-99.99,-1.000000,,2014-03-03 08:00:00,
2014-03-03 03:42:00,56.0,48.0,29.85,WNW,300,2.0,-999.0,74,0.00,,,-99.99,-1.000000,,2014-03-03 08:42:00,
2014-03-03 03:53:00,56.0,48.0,29.85,WNW,300,2.0,-999.0,74,0.00,,,-99.99,-1.000000,,2014-03-03 08:53:00,
2014-03-03 04:00:00,62.0,47.0,29.81,South,184,2.0,-999.0,58,0.00,,,-99.99,0.700000,,2014-03-03 09:00:00,
2014-03-03 04:43:00,62.0,47.0,29.81,South,184,2.0,-999.0,58,0.00,,,-99.99,0.700000,,2014-03-03 09:43:00,
2014-03-03 04:54:00,62.0,47.0,29.81,South,184,2.0,-999.0,58,0.00,,,-99.99,0.700000,,2014-03-03 09:54:00,
2014-03-03 05:00:00,58.0,48.0,29.80,North,355,2.0,-999.0,68,0.00,,,-99.99,-1.300000,,2014-03-03 10:00:00,
2014-03-03 05:43:00,58.0,48.0,29.80,North,355,2.0,-999.0,68,0.00,,,-99.99,-1.300000,,2014-03-03 10:43:00,
2014-03-03 05:53:00,58.0,48.0,29.80,North,355,2.0,-999.0,68,0.00,,,-99.99,-1.300000,,2014-03-03 10:53:00,
2014-03-03 06:00:00,55.0,49.0,29.78,NNW,339,3.0,-999.0,77,0.00,,,-99.99,-1.200000,,2014-03-03 11:00:00,
2014-03-03 06:42:00,55.0,49.0,29.78,NNW,339,3.0,-999.0,77,0.00,,,-99.99,-1.200000,,2014-03-03 11:42:00,
2014-03-03 06:52:00,55.0,49.0,29.78,NNW,339,3.0,-999.0,77,0.00,,,-99.99,-1.200000,,2014-03-03 11:52:00,
2014-03-03 07:00:00,53.0,51.0,29.82,SE,132,4.0,-999.0,92,0.01,,,-99.99,-0.700000,,2014-03-03 12:00:00,
2014-03-03 07:42:00,53.0,51.0,29.82,SE,132,4.0,-999.0,92,0.01,,,-99.99,-0.700000,,2014-03-03 12:42:00,
2014-03-03 07:52:00,53.0,51.0,29.82,SE,132,4.0,-999.0,92,0.01,,,-99.99,-0.700000,,2014-03-03 12:52:00,
2014-03-03 08:00:00,52.0,52.0,29.82,NNE,31,3.0,-999.0,98,0.01,,,-99.99,7.900000,,2014-03-03 13:00:00,
2014-03-03 08:42:00,52.0,52.0,29.82,NNE,31,3.0,-999.0,98,0.01,,,-99.99,7.900000,,2014-03-03 13:42:00,
2014-03-03 08:52:00,52.0,52.0,29.82,NNE,31,3.0,-999.0,98,0.01,,,-99.99,7.900000,,2014-03-03 13:52:00,
2014-03-03 09:00:00,54.0,52.0,29.83,North,7,1.0,-999.0,94,0.00,,,-99.99,47.099998,,2014-03-03 14:00:00,
2014-03-03 09:43:00,54.0,52.0,29.83,North,7,1.0,-999.0,94,0.00,,,-99.99,47.099998,,2014-03-03 14:43:00,
2014-03-03 09:52:00,54.0,52.0,29.83,North,7,1.0,-999.0,94,0.00,,,-99.99,47.099998,,2014-03-03 14:52:00,
2014-03-03 10:00:00,57.0,52.0,29.86,East,88,1.0,-999.0,83,0.00,,,-99.99,176.699997,,2014-03-03 15:00:00,
2014-03-03 10:44:00,57.0,52.0,29.86,East,88,1.0,-999.0,83,0.00,,,-99.99,176.699997,,2014-03-03 15:44:00,
2014-03-03 10:54:00,57.0,52.0,29.86,East,88,1.0,-999.0,83,0.00,,,-99.99,176.699997,,2014-03-03 15:54:00,
2014-03-03 11:00:00,56.0,51.0,29.87,NNE,31,4.0,-999.0,80,0.00,,,-99.99,116.099998,,2014-03-03 16:00:00,
2014-03-03 11:43:00,56.0,51.0,29.87,NNE,31,4.0,-999.0,80,0.00,,,-99.99,116.099998,,2014-03-03 16:43:00,
2014-03-03 11:53:00,56.0,51.0,29.87,NNE,31,4.0,-999.0,80,0.00,,,-99.99,116.099998,,2014-03-03 16:53:00,
2014-03-03 12:00:00,53.0,51.0,29.88,NE,41,6.0,-999.0,93,0.01,,,-99.99,50.700001,,2014-03-03 17:00:00,
2014-03-03 12:43:00,53.0,51.0,29.88,NE,41,6.0,-999.0,93,0.01,,,-99.99,50.700001,,2014-03-03 17:43:00,
2014-03-03 12:53:00,53.0,51.0,29.88,NE,41,6.0,-999.0,93,0.01,,,-99.99,50.700001,,2014-03-03 17:53:00,
2014-03-03 13:00:00,44.0,43.0,29.92,NE,53,11.0,-999.0,93,0.06,,,-99.99,58.799999,,2014-03-03 18:00:00,
2014-03-03 13:43:00,44.0,43.0,29.92,NE,53,11.0,-999.0,93,0.06,,,-99.99,58.799999,,2014-03-03 18:43:00,
2014-03-03 13:53:00,44.0,43.0,29.92,NE,53,11.0,-999.0,93,0.06,,,-99.99,58.799999,,2014-03-03 18:53:00,
2014-03-03 14:00:00,42.0,41.0,29.95,ENE,62,6.0,-999.0,96,0.03,,,-99.99,51.900002,,2014-03-03 19:00:00,
2014-03-03 14:42:00,42.0,41.0,29.95,ENE,62,6.0,-999.0,96,0.03,,,-99.99,51.900002,,2014-03-03 19:42:00,
2014-03-03 14:53:00,42.0,41.0,29.95,ENE,62,6.0,-999.0,96,0.03,,,-99.99,51.900002,,2014-03-03 19:53:00,
2014-03-03 15:00:00,40.0,38.0,29.98,ENE,60,9.0,-999.0,95,0.03,,,-99.99,47.599998,,2014-03-03 20:00:00,
2014-03-03 15:41:00,40.0,38.0,29.98,ENE,60,9.0,-999.0,95,0.03,,,-99.99,47.599998,,2014-03-03 20:41:00,
2014-03-03 15:52:00,40.0,38.0,29.98,ENE,60,9.0,-999.0,95,0.03,,,-99.99,47.599998,,2014-03-03 20:52:00,
2014-03-03 16:00:00,37.0,36.0,30.02,ENE,61,6.0,-999.0,95,0.01,,,-99.99,83.400002,,2014-03-03 21:00:00,
2014-03-03 16:42:00,37.0,36.0,30.02,ENE,61,6.0,-999.0,95,0.01,,,-99.99,83.400002,,2014-03-03 21:42:00,
2014-03-03 16:53:00,37.0,36.0,30.02,ENE,61,6.0,-999.0,95,0.01,,,-99.99,83.400002,,2014-03-03 21:53:00,
2014-03-03 17:00:00,36.0,35.0,30.06,ENE,62,6.0,-999.0,94,0.00,,,-99.99,53.400002,,2014-03-03 22:00:00,
2014-03-03 17:42:00,36.0,35.0,30.06,ENE,62,6.0,-999.0,94,0.00,,,-99.99,53.400002,,2014-03-03 22:42:00,
2014-03-03 17:52:00,36.0,35.0,30.06,ENE,62,6.0,-999.0,94,0.00,,,-99.99,53.400002,,2014-03-03 22:52:00,
2014-03-03 18:00:00,35.0,34.0,30.08,ENE,61,5.0,-999.0,95,0.00,,,-99.99,17.600000,,2014-03-03 23:00:00,
2014-03-03 18:41:00,35.0,34.0,30.08,ENE,61,5.0,-999.0,95,0.00,,,-99.99,17.600000,,2014-03-03 23:41:00,
2014-03-03 18:51:00,35.0,34.0,30.08,ENE,61,5.0,-999.0,95,0.00,,,-99.99,17.600000,,2014-03-03 23:51:00,
2014-03-03 19:00:00,35.0,34.0,30.11,ENE,72,3.0,-999.0,97,0.00,,,-99.99,0.800000,,2014-03-04 00:00:00,
2014-03-03 19:41:00,35.0,34.0,30.11,ENE,72,3.0,-999.0,97,0.00,,,-99.99,0.800000,,2014-03-04 00:41:00,
2014-03-03 19:52:00,35.0,34.0,30.11,ENE,72,3.0,-999.0,97,0.00,,,-99.99,0.800000,,2014-03-04 00:52:00,
2014-03-03 20:00:00,35.0,34.0,30.15,East,81,4.0,-999.0,96,0.00,,,-99.99,-1.300000,,2014-03-04 01:00:00,
2014-03-03 20:42:00,35.0,34.0,30.15,East,81,4.0,-999.0,96,0.00,,,-99.99,-1.300000,,2014-03-04 01:42:00,
2014-03-03 20:52:00,35.0,34.0,30.15,East,81,4.0,-999.0,96,0.00,,,-99.99,-1.300000,,2014-03-04 01:52:00,
2014-03-03 21:00:00,35.0,34.0,30.18,NE,56,6.0,-999.0,96,0.00,,,-99.99,-1.300000,,2014-03-04 02:00:00,
2014-03-03 21:42:00,35.0,34.0,30.18,NE,56,6.0,-999.0,96,0.00,,,-99.99,-1.300000,,2014-03-04 02:42:00,
2014-03-03 21:52:00,35.0,34.0,30.18,NE,56,6.0,-999.0,96,0.00,,,-99.99,-1.300000,,2014-03-04 02:52:00,
2014-03-03 22:00:00,34.0,33.0,30.19,ENE,58,5.0,-999.0,97,0.00,,,-99.99,-1.300000,,2014-03-04 03:00:00,
2014-03-03 22:44:00,34.0,33.0,30.19,ENE,58,5.0,-999.0,97,0.00,,,-99.99,-1.300000,,2014-03-04 03:44:00,
2014-03-03 22:53:00,34.0,33.0,30.19,ENE,58,5.0,-999.0,97,0.00,,,-99.99,-1.300000,,2014-03-04 03:53:00,
2014-03-03 23:00:00,32.0,31.0,30.21,ENE,69,5.0,-999.0,96,0.00,,,-99.99,-1.500000,,2014-03-04 04:00:00,
2014-03-03 23:43:00,32.0,31.0,30.21,ENE,69,5.0,-999.0,96,0.00,,,-99.99,-1.500000,,2014-03-04 04:43:00,
2014-03-03 23:53:00,32.0,31.0,30.21,ENE,69,5.0,-999.0,96,0.00,,,-99.99,-1.500000,,2014-03-04 04:53:00,